EZY14QP EGPH-BIKF

Flight info

Callsign EZY14QP
Flight time N/A
Altitude 37000
Route GRICE P600 ASNUD DCT NESDI DCT RUGID DCT ATSIX/M077F380 DCT 6100N01234W DCT ALDAN DCT ASRUN ASRUN4N
Aircraft A320/M-SDE3FGHIRWY/LB1

Departure

Time 2026-05-06 17:45
Airport Edinburgh Airport (EGPH)

Arrival

Time N/A
Airport Keflavik International Airport (BIKF)
Time Latitude Longitude Altitude Speed Heading
2026-05-06 17:06 55.94854 -3.36604 114 ft 0 kts 145°
2026-05-06 17:13 55.94855 -3.36604 116 ft 0 kts 145°
2026-05-06 17:33 55.94860 -3.36611 116 ft 4 kts 148°
2026-05-06 17:34 55.94884 -3.36631 114 ft 4 kts 166°
2026-05-06 17:34 55.94910 -3.36635 113 ft 4 kts 193°
2026-05-06 17:34 55.94934 -3.36617 113 ft 4 kts 220°
2026-05-06 17:34 55.94952 -3.36582 112 ft 4 kts 237°
2026-05-06 17:35 55.94955 -3.36573 112 ft 0 kts 239°
2026-05-06 17:39 55.94953 -3.36579 114 ft 2 kts 239°
2026-05-06 17:39 55.94945 -3.36602 112 ft 4 kts 239°
2026-05-06 17:39 55.94934 -3.36634 114 ft 2 kts 239°
2026-05-06 17:40 55.94917 -3.36686 112 ft 7 kts 239°
2026-05-06 17:40 55.94896 -3.36753 114 ft 6 kts 252°
2026-05-06 17:40 55.94911 -3.36820 116 ft 6 kts 310°
2026-05-06 17:40 55.94924 -3.36885 115 ft 7 kts 263°
2026-05-06 17:41 55.94865 -3.37068 114 ft 20 kts 239°
2026-05-06 17:41 55.94800 -3.37261 113 ft 17 kts 239°
2026-05-06 17:41 55.94741 -3.37436 111 ft 16 kts 240°
2026-05-06 17:41 55.94688 -3.37593 116 ft 14 kts 238°
2026-05-06 17:42 55.94640 -3.37734 111 ft 13 kts 238°
2026-05-06 17:42 55.94597 -3.37862 113 ft 12 kts 239°
2026-05-06 17:42 55.94558 -3.37979 112 ft 10 kts 239°
2026-05-06 17:42 55.94507 -3.38129 114 ft 18 kts 239°
2026-05-06 17:43 55.94446 -3.38314 113 ft 17 kts 239°
2026-05-06 17:43 55.94387 -3.38482 114 ft 16 kts 239°
2026-05-06 17:43 55.94325 -3.38664 114 ft 18 kts 238°
2026-05-06 17:43 55.94291 -3.38860 116 ft 17 kts 301°
2026-05-06 17:44 55.94391 -3.38978 114 ft 19 kts 330°
2026-05-06 17:44 55.94445 -3.38889 114 ft 16 kts 59°
2026-05-06 17:44 55.94654 -3.38267 112 ft 101 kts 59°
2026-05-06 17:44 55.95142 -3.36828 213 ft 159 kts 58°
2026-05-06 17:45 55.95747 -3.35111 1024 ft 164 kts 60°
2026-05-06 17:45 55.96489 -3.33527 1698 ft 174 kts 45°
2026-05-06 17:45 55.97437 -3.31978 2040 ft 196 kts 44°
2026-05-06 17:45 55.98512 -3.30241 2401 ft 221 kts 44°
2026-05-06 17:46 55.99738 -3.28402 2810 ft 246 kts 34°
2026-05-06 17:46 56.01384 -3.27201 3399 ft 264 kts 11°
2026-05-06 17:46 56.03235 -3.27190 4272 ft 270 kts 348°
2026-05-06 17:46 56.04971 -3.28436 5206 ft 271 kts 324°
2026-05-06 17:47 56.06312 -3.30756 6191 ft 269 kts 302°
2026-05-06 17:47 56.07075 -3.33777 7124 ft 268 kts 283°
2026-05-06 17:47 56.07547 -3.37017 8013 ft 270 kts 283°
2026-05-06 17:47 56.08023 -3.40298 8874 ft 274 kts 283°
2026-05-06 17:48 56.08503 -3.43623 9771 ft 277 kts 283°
2026-05-06 17:48 56.09024 -3.47001 10349 ft 291 kts 286°
2026-05-06 17:48 56.09598 -3.50569 10640 ft 312 kts 284°
2026-05-06 17:48 56.10217 -3.54352 11273 ft 321 kts 291°
2026-05-06 17:49 56.11251 -3.57853 12427 ft 309 kts 297°
2026-05-06 17:49 56.12319 -3.61031 13896 ft 290 kts 303°
2026-05-06 17:49 56.13584 -3.63700 15183 ft 271 kts 313°
2026-05-06 17:49 56.14998 -3.65854 16199 ft 264 kts 317°
2026-05-06 17:50 56.16404 -3.67959 16946 ft 264 kts 317°
2026-05-06 17:50 56.17822 -3.69995 17619 ft 266 kts 317°
2026-05-06 17:50 56.19281 -3.72046 18300 ft 268 kts 317°
2026-05-06 17:50 56.20754 -3.74111 18889 ft 269 kts 317°
2026-05-06 17:51 56.22233 -3.76193 19475 ft 271 kts 317°
2026-05-06 17:51 56.23716 -3.78297 20078 ft 272 kts 317°
2026-05-06 17:51 56.25232 -3.80473 20345 ft 288 kts 317°
2026-05-06 17:51 56.26843 -3.82802 20481 ft 307 kts 317°
2026-05-06 17:52 56.28553 -3.85276 20618 ft 324 kts 317°
2026-05-06 17:52 56.30352 -3.87873 20752 ft 340 kts 317°
2026-05-06 17:52 56.32215 -3.90557 20889 ft 354 kts 318°
2026-05-06 17:52 56.34162 -3.93355 21248 ft 362 kts 318°
2026-05-06 17:53 56.36143 -3.96202 21756 ft 365 kts 318°
2026-05-06 17:53 56.38129 -3.99060 22292 ft 367 kts 318°
2026-05-06 17:53 56.40126 -4.01939 22828 ft 368 kts 318°
2026-05-06 17:53 56.42132 -4.04834 23325 ft 370 kts 318°
2026-05-06 17:54 56.44147 -4.07754 23786 ft 372 kts 317°
2026-05-06 17:54 56.46173 -4.10698 24230 ft 374 kts 318°
2026-05-06 17:54 56.48181 -4.13618 24442 ft 363 kts 318°
2026-05-06 17:54 56.50117 -4.16433 24555 ft 366 kts 318°
2026-05-06 17:55 56.52122 -4.19361 24819 ft 373 kts 317°
2026-05-06 17:55 56.54146 -4.22324 25192 ft 376 kts 317°
2026-05-06 17:55 56.56185 -4.25312 25625 ft 377 kts 317°
2026-05-06 17:55 56.58223 -4.28302 26059 ft 378 kts 318°
2026-05-06 17:56 56.60273 -4.31307 26470 ft 379 kts 318°
2026-05-06 17:56 56.62327 -4.34314 26880 ft 380 kts 318°
2026-05-06 17:56 56.64389 -4.37340 27276 ft 381 kts 318°
2026-05-06 17:56 56.66428 -4.40341 27695 ft 383 kts 318°
2026-05-06 17:57 56.68493 -4.43398 28091 ft 384 kts 318°
2026-05-06 17:57 56.70566 -4.46472 28489 ft 385 kts 318°
2026-05-06 17:57 56.72646 -4.49552 28879 ft 386 kts 318°
2026-05-06 17:57 56.74735 -4.52645 29259 ft 388 kts 319°
2026-05-06 17:58 56.76830 -4.55748 29665 ft 389 kts 318°
2026-05-06 17:58 56.78928 -4.58864 30066 ft 389 kts 318°
2026-05-06 17:58 56.81028 -4.61990 30372 ft 390 kts 318°
2026-05-06 17:58 56.83129 -4.65129 30682 ft 391 kts 318°
2026-05-06 17:59 56.85208 -4.68232 30984 ft 391 kts 318°
2026-05-06 17:59 56.87321 -4.71389 31277 ft 392 kts 318°
2026-05-06 17:59 56.89428 -4.74538 31650 ft 390 kts 318°
2026-05-06 17:59 56.91522 -4.77674 32106 ft 387 kts 318°
2026-05-06 18:00 56.93593 -4.80786 32552 ft 384 kts 318°
2026-05-06 18:00 56.95648 -4.83878 32958 ft 381 kts 319°
2026-05-06 18:00 56.97691 -4.86950 33410 ft 378 kts 319°
2026-05-06 18:00 56.99715 -4.89998 33896 ft 376 kts 319°
2026-05-06 18:01 57.01697 -4.92992 34333 ft 373 kts 318°
2026-05-06 18:01 57.03702 -4.96026 34632 ft 373 kts 318°
2026-05-06 18:01 57.05705 -4.99064 34851 ft 374 kts 318°
2026-05-06 18:01 57.07718 -5.02124 35039 ft 376 kts 317°
2026-05-06 18:02 57.09739 -5.05201 35216 ft 378 kts 317°
2026-05-06 18:02 57.11769 -5.08295 35382 ft 380 kts 317°
2026-05-06 18:02 57.13803 -5.11405 35564 ft 381 kts 317°
2026-05-06 18:02 57.15847 -5.14535 35736 ft 383 kts 317°
2026-05-06 18:03 57.17903 -5.17675 35916 ft 385 kts 317°